This is the latest recevied weather packets stored in our database for station/object DC1NF-7. If no packets are shown the sender has not sent any weather packets the latest 10 day(s).
| Time | Temp. | Humidity | Pressure | Rain* | Wind** | Luminosity | Snow |
|---|---|---|---|---|---|---|---|
| 1777668966 | 12.78° C | 60% | 1025.1 hPa | 0 mm | - | 0 W/m² | - |
| 1777668364 | 12.78° C | 63% | 1025.2 hPa | 0 mm | - | 0 W/m² | - |
| 1777667761 | 13.33° C | 61% | 1025.1 hPa | 0 mm | - | 0 W/m² | - |
| 1777667155 | 13.89° C | 57% | 1025.1 hPa | 0 mm | - | 0 W/m² | - |
| 1777666560 | 13.89° C | 55% | 1025.1 hPa | 0 mm | - | 0 W/m² | - |
| 1777665949 | 14.44° C | 53% | 1025.2 hPa | 0 mm | - | 0 W/m² | - |
| 1777665346 | 15° C | 51% | 1025.1 hPa | 0 mm | - | 0 W/m² | - |
| 1777664743 | 15.56° C | 49% | 1025 hPa | 0 mm | - | 0 W/m² | - |
| 1777664138 | 15.56° C | 50% | 1025.1 hPa | 0 mm | - | 0 W/m² | - |
| 1777663534 | 16.11° C | 51% | 1025.1 hPa | 0 mm | - | 0 W/m² | - |
| 1777662930 | 16.67° C | 48% | 1025.1 hPa | 0 mm | - | 0 W/m² | - |
| 1777662326 | 17.22° C | 46% | 1025.1 hPa | 0 mm | - | 0 W/m² | - |
| 1777661723 | 17.78° C | 44% | 1025 hPa | 0 mm | - | 0 W/m² | - |
| 1777661120 | 18.33° C | 43% | 1024.9 hPa | 0 mm | - | 2 W/m² | - |
| 1777660516 | 18.89° C | 41% | 1024.9 hPa | 0 mm | - | 5 W/m² | - |
| 1777659973 | 19.44° C | 38% | 1024.9 hPa | 0 mm | - | 9 W/m² | - |
| 1777659368 | 20° C | 37% | 1024.8 hPa | 0 mm | - | 15 W/m² | - |
| 1777658763 | 20.56° C | 36% | 1024.8 hPa | 0 mm | - | 21 W/m² | - |
| 1777658159 | 21.11° C | 36% | 1024.7 hPa | 0 mm | - | 31 W/m² | - |
| 1777657555 | 21.67° C | 34% | 1024.8 hPa | 0 mm | - | 42 W/m² | - |
| 1777656952 | 21.67° C | 33% | 1024.7 hPa | 0 mm | - | 52 W/m² | - |
| 1777656348 | 22.22° C | 33% | 1024.7 hPa | 0 mm | - | 62 W/m² | - |
| 1777655745 | 22.22° C | 33% | 1024.8 hPa | 0 mm | - | 77 W/m² | - |
| 1777655142 | 22.22° C | 32% | 1024.7 hPa | 0 mm | - | 106 W/m² | - |
| 1777654537 | 22.78° C | 31% | 1024.8 hPa | 0 mm | - | 129 W/m² | - |
* Rain latest hour (hover to see other rain measurements)
** Current wind speed in m/s (hover to see current wind gust speed)